EZY346J EGAC-EGPF

Flight info

Callsign EZY346J
Flight time 0h 29m
Altitude 17000
Route MAGEE DCT BLACA
Aircraft A319/M-SDE3FGHIRWY/LB1

Departure

Time 2026-05-06 21:29
Airport George Best Belfast City Airport (EGAC)

Arrival

Time 2026-05-06 21:59
Airport Glasgow Airport (EGPF)
Time Latitude Longitude Altitude Speed Heading
2026-05-06 20:30 54.61432 -5.87217 22 ft 0 kts 124°
2026-05-06 21:21 54.61444 -5.87248 21 ft 4 kts 116°
2026-05-06 21:22 54.61452 -5.87291 21 ft 4 kts 89°
2026-05-06 21:22 54.61445 -5.87326 21 ft 2 kts 35°
2026-05-06 21:22 54.61440 -5.87332 21 ft 0 kts 34°
2026-05-06 21:24 54.61453 -5.87317 21 ft 5 kts 34°
2026-05-06 21:24 54.61479 -5.87286 21 ft 1 kts 34°
2026-05-06 21:24 54.61476 -5.87290 21 ft 0 kts 34°
2026-05-06 21:25 54.61481 -5.87284 21 ft 3 kts 34°
2026-05-06 21:25 54.61515 -5.87243 21 ft 9 kts 34°
2026-05-06 21:25 54.61580 -5.87167 21 ft 14 kts 34°
2026-05-06 21:25 54.61660 -5.87070 21 ft 14 kts 35°
2026-05-06 21:26 54.61742 -5.86993 21 ft 13 kts 358°
2026-05-06 21:26 54.61807 -5.87108 18 ft 15 kts 303°
2026-05-06 21:26 54.61884 -5.87159 19 ft 13 kts 27°
2026-05-06 21:26 54.61966 -5.87066 16 ft 16 kts 33°
2026-05-06 21:27 54.62055 -5.86958 17 ft 15 kts 36°
2026-05-06 21:27 54.62145 -5.86848 17 ft 16 kts 32°
2026-05-06 21:27 54.62230 -5.86751 21 ft 14 kts 35°
2026-05-06 21:27 54.62315 -5.86649 20 ft 16 kts 35°
2026-05-06 21:28 54.62398 -5.86535 22 ft 15 kts 53°
2026-05-06 21:28 54.62451 -5.86483 20 ft 4 kts 263°
2026-05-06 21:28 54.62441 -5.86494 20 ft 0 kts 217°
2026-05-06 21:28 54.62397 -5.86548 22 ft 33 kts 215°
2026-05-06 21:29 54.61979 -5.87049 16 ft 110 kts 214°
2026-05-06 21:29 54.61211 -5.87958 240 ft 141 kts 214°
2026-05-06 21:29 54.60404 -5.88900 868 ft 140 kts 214°
2026-05-06 21:29 54.59584 -5.89876 1358 ft 152 kts 215°
2026-05-06 21:30 54.58633 -5.90941 1715 ft 175 kts 205°
2026-05-06 21:30 54.57360 -5.90970 2021 ft 201 kts 159°
2026-05-06 21:30 54.56312 -5.89283 2342 ft 226 kts 116°
2026-05-06 21:30 54.56134 -5.86474 2695 ft 254 kts 76°
2026-05-06 21:31 54.57074 -5.83834 3389 ft 268 kts 43°
2026-05-06 21:31 54.58599 -5.81944 4347 ft 272 kts 30°
2026-05-06 21:31 54.60279 -5.80388 5295 ft 276 kts 26°
2026-05-06 21:31 54.62009 -5.78876 6200 ft 281 kts 27°
2026-05-06 21:32 54.63751 -5.77292 7067 ft 285 kts 28°
2026-05-06 21:32 54.67238 -5.73820 8703 ft 294 kts 31°
2026-05-06 21:32 54.68990 -5.71961 9473 ft 298 kts 32°
2026-05-06 21:33 54.70731 -5.70070 10192 ft 303 kts 32°
2026-05-06 21:33 54.72575 -5.68048 10430 ft 325 kts 32°
2026-05-06 21:33 54.74533 -5.65900 10838 ft 338 kts 32°
2026-05-06 21:33 54.76529 -5.63683 11437 ft 343 kts 35°
2026-05-06 21:34 54.78320 -5.60919 12034 ft 348 kts 49°
2026-05-06 21:34 54.79718 -5.57483 12619 ft 351 kts 62°
2026-05-06 21:34 54.80658 -5.53565 13181 ft 354 kts 71°
2026-05-06 21:34 54.81484 -5.49518 13725 ft 358 kts 71°
2026-05-06 21:35 54.82308 -5.45491 14234 ft 361 kts 71°
2026-05-06 21:35 54.83152 -5.41375 14724 ft 364 kts 70°
2026-05-06 21:35 54.84005 -5.37224 15191 ft 367 kts 70°
2026-05-06 21:35 54.84863 -5.33034 15638 ft 370 kts 71°
2026-05-06 21:36 54.85720 -5.28809 16066 ft 373 kts 71°
2026-05-06 21:36 54.86580 -5.24554 16476 ft 375 kts 71°
2026-05-06 21:36 54.87541 -5.20322 16859 ft 378 kts 63°
2026-05-06 21:36 54.89029 -5.16567 16985 ft 376 kts 47°
2026-05-06 21:37 54.90977 -5.13713 17008 ft 360 kts 32°
2026-05-06 21:37 54.93175 -5.11711 17009 ft 355 kts 26°
2026-05-06 21:37 54.95387 -5.09824 17009 ft 354 kts 26°
2026-05-06 21:37 54.97559 -5.07948 17009 ft 353 kts 26°
2026-05-06 21:38 54.99756 -5.06039 17009 ft 353 kts 26°
2026-05-06 21:38 55.01955 -5.04126 17009 ft 353 kts 26°
2026-05-06 21:38 55.04151 -5.02212 17009 ft 353 kts 26°
2026-05-06 21:38 55.06348 -5.00297 17009 ft 353 kts 26°
2026-05-06 21:39 55.08545 -4.98380 17009 ft 353 kts 26°
2026-05-06 21:39 55.10742 -4.96463 17009 ft 353 kts 26°
2026-05-06 21:39 55.12939 -4.94543 17010 ft 353 kts 26°
2026-05-06 21:39 55.15135 -4.92619 17010 ft 353 kts 26°
2026-05-06 21:40 55.17301 -4.90722 17010 ft 353 kts 26°
2026-05-06 21:40 55.19498 -4.88796 17010 ft 353 kts 26°
2026-05-06 21:40 55.21695 -4.86871 17010 ft 353 kts 26°
2026-05-06 21:40 55.23888 -4.84948 17010 ft 353 kts 26°
2026-05-06 21:41 55.26084 -4.83021 17010 ft 353 kts 26°
2026-05-06 21:41 55.28277 -4.81090 17011 ft 353 kts 26°
2026-05-06 21:41 55.30434 -4.79020 17010 ft 353 kts 34°
2026-05-06 21:41 55.32307 -4.76242 17011 ft 353 kts 47°
2026-05-06 21:42 55.33896 -4.72895 17014 ft 365 kts 51°
2026-05-06 21:42 55.35525 -4.69375 17010 ft 376 kts 51°
2026-05-06 21:42 55.37159 -4.65845 17009 ft 378 kts 51°
2026-05-06 21:42 55.38821 -4.62255 17009 ft 379 kts 51°
2026-05-06 21:43 55.40487 -4.58655 17009 ft 379 kts 51°
2026-05-06 21:43 55.42153 -4.55054 17009 ft 379 kts 51°
2026-05-06 21:43 55.43815 -4.51455 17009 ft 379 kts 51°
2026-05-06 21:43 55.45476 -4.47848 17009 ft 379 kts 51°
2026-05-06 21:44 55.47137 -4.44236 17009 ft 379 kts 51°
2026-05-06 21:44 55.48797 -4.40624 17009 ft 379 kts 51°
2026-05-06 21:44 55.50458 -4.37008 17011 ft 379 kts 51°
2026-05-06 21:44 55.52096 -4.33436 17013 ft 380 kts 51°
2026-05-06 21:45 55.53754 -4.29808 17015 ft 380 kts 51°
2026-05-06 21:45 55.55408 -4.26177 17016 ft 380 kts 51°
2026-05-06 21:45 55.57061 -4.22540 17016 ft 379 kts 51°
2026-05-06 21:45 55.58711 -4.18907 17016 ft 379 kts 51°
2026-05-06 21:46 55.60363 -4.15269 17016 ft 379 kts 51°
2026-05-06 21:46 55.62016 -4.11626 17017 ft 379 kts 51°
2026-05-06 21:46 55.63666 -4.07989 17016 ft 379 kts 51°
2026-05-06 21:46 55.65313 -4.04343 17015 ft 379 kts 51°
2026-05-06 21:47 55.66932 -4.00742 17013 ft 378 kts 51°
2026-05-06 21:47 55.68615 -3.97327 16649 ft 362 kts 39°
2026-05-06 21:47 55.70803 -3.95415 16295 ft 344 kts 11°
2026-05-06 21:47 55.73130 -3.95453 15860 ft 332 kts 347°
2026-05-06 21:48 55.75324 -3.96628 15259 ft 327 kts 337°
2026-05-06 21:48 55.77208 -3.98782 14666 ft 322 kts 317°
2026-05-06 21:48 55.78823 -4.01518 14042 ft 319 kts 314°
2026-05-06 21:48 55.80493 -4.04082 13425 ft 317 kts 329°
2026-05-06 21:49 55.82542 -4.05364 12846 ft 313 kts 353°
2026-05-06 21:49 55.84657 -4.05048 12255 ft 310 kts 18°
2026-05-06 21:49 55.86534 -4.03238 11644 ft 307 kts 37°
2026-05-06 21:49 55.88209 -4.00893 11011 ft 305 kts 39°
2026-05-06 21:50 55.89848 -3.98518 10409 ft 303 kts 39°
2026-05-06 21:50 55.91468 -3.96156 9810 ft 299 kts 39°
2026-05-06 21:50 55.93072 -3.93812 9209 ft 296 kts 39°
2026-05-06 21:50 55.94656 -3.91492 8604 ft 293 kts 39°
2026-05-06 21:51 55.96227 -3.89193 7992 ft 290 kts 38°
2026-05-06 21:51 55.97976 -3.87516 7372 ft 285 kts 14°
2026-05-06 21:51 55.99927 -3.87409 6774 ft 280 kts 346°
2026-05-06 21:51 56.01634 -3.88890 6331 ft 278 kts 319°
2026-05-06 21:52 56.02781 -3.91619 5881 ft 275 kts 294°
2026-05-06 21:52 56.03460 -3.94810 5497 ft 274 kts 284°
2026-05-06 21:52 56.03851 -3.98145 5130 ft 272 kts 279°
2026-05-06 21:52 56.04184 -4.01429 4794 ft 263 kts 279°
2026-05-06 21:53 56.04497 -4.04564 4478 ft 249 kts 279°
2026-05-06 21:53 56.04660 -4.07558 4177 ft 236 kts 265°
2026-05-06 21:53 56.04295 -4.10352 3885 ft 230 kts 245°
2026-05-06 21:53 56.03452 -4.12715 3681 ft 223 kts 227°
2026-05-06 21:54 56.02414 -4.14671 3482 ft 217 kts 226°
2026-05-06 21:54 56.01383 -4.16629 3281 ft 215 kts 226°
2026-05-06 21:54 56.00359 -4.18568 3140 ft 212 kts 226°
2026-05-06 21:54 55.99368 -4.20442 3046 ft 203 kts 226°
2026-05-06 21:55 55.98420 -4.22231 2954 ft 196 kts 226°
2026-05-06 21:55 55.97495 -4.23977 2782 ft 190 kts 226°
2026-05-06 21:55 55.96592 -4.25679 2515 ft 188 kts 226°
2026-05-06 21:55 55.95702 -4.27356 2261 ft 183 kts 226°
2026-05-06 21:56 55.94843 -4.28973 2032 ft 176 kts 226°
2026-05-06 21:56 55.94023 -4.30516 1802 ft 171 kts 226°
2026-05-06 21:56 55.93222 -4.32020 1580 ft 163 kts 226°
2026-05-06 21:56 55.92465 -4.33443 1370 ft 154 kts 226°
2026-05-06 21:57 55.91750 -4.34785 1170 ft 145 kts 226°
2026-05-06 21:57 55.91067 -4.36066 982 ft 141 kts 226°
2026-05-06 21:57 55.90398 -4.37321 805 ft 139 kts 226°
2026-05-06 21:57 55.89735 -4.38563 626 ft 138 kts 226°
2026-05-06 21:58 55.89076 -4.39800 435 ft 137 kts 226°
2026-05-06 21:58 55.88421 -4.41028 247 ft 137 kts 226°
2026-05-06 21:58 55.87777 -4.42240 65 ft 136 kts 226°
2026-05-06 21:58 55.87171 -4.43371 31 ft 109 kts 226°
2026-05-06 21:59 55.86767 -4.44127 31 ft 55 kts 226°
2026-05-06 21:59 55.86579 -4.44428 31 ft 31 kts 211°
2026-05-06 21:59 55.86443 -4.44529 31 ft 13 kts 197°
2026-05-06 21:59 55.86365 -4.44510 31 ft 12 kts 123°
2026-05-06 22:00 55.86398 -4.44382 31 ft 13 kts 45°
2026-05-06 22:00 55.86462 -4.44269 31 ft 13 kts 45°
2026-05-06 22:00 55.86525 -4.44146 31 ft 14 kts 47°
2026-05-06 22:00 55.86593 -4.44015 31 ft 15 kts 47°
2026-05-06 22:01 55.86667 -4.43881 31 ft 15 kts 45°
2026-05-06 22:01 55.86734 -4.43730 31 ft 16 kts 72°
2026-05-06 22:01 55.86766 -4.43539 31 ft 16 kts 74°
2026-05-06 22:01 55.86798 -4.43339 31 ft 17 kts 75°
2026-05-06 22:02 55.86831 -4.43131 31 ft 18 kts 74°
2026-05-06 22:02 55.86803 -4.43000 31 ft 12 kts 162°
2026-05-06 22:02 55.86743 -4.42970 31 ft 8 kts 164°
2026-05-06 22:02 55.86694 -4.42944 31 ft 6 kts 164°
2026-05-06 22:03 55.86678 -4.42978 31 ft 3 kts 253°
2026-05-06 22:03 55.86673 -4.43008 31 ft 2 kts 254°
2026-05-06 22:03 55.86669 -4.43031 31 ft 0 kts 254°